Location: Peyton Hall Observatory
(40.3466°N, 74.6516°W)
Time: 23:55:04
(UTC-05:00)

ISS - All Passes

Search period start: 22 February 2018 00:00
Search period end: 04 March 2018 00:00
Orbit: 402 x 407 km, 51.6° (Epoch: 23 February)

Date Brightness Start Highest point End Pass type
(mag) Time Alt. Az. Time Alt. Az. Time Alt. Az.
22 Feb - 06:51:07 10° S 06:53:33 19° SE 06:55:59 10° E daylight
22 Feb - 08:26:39 10° WSW 08:29:49 45° NNW 08:32:59 10° NE daylight
22 Feb - 10:05:05 10° NW 10:06:56 14° NNW 10:08:47 10° NNE daylight
22 Feb - 11:43:00 10° NNW 11:44:30 12° N 11:45:59 10° NE daylight
22 Feb - 13:18:49 10° NW 13:21:46 30° NNE 13:24:43 10° E daylight
22 Feb - 14:55:17 10° WNW 14:58:14 32° SW 15:01:11 10° SSE daylight
23 Feb - 07:34:16 10° SW 07:37:32 84° NW 07:40:50 10° NE daylight
23 Feb - 09:12:06 10° WNW 09:14:25 18° NNW 09:16:45 10° NNE daylight
23 Feb - 10:50:42 10° NNW 10:51:56 12° N 10:53:08 10° NNE daylight
23 Feb - 12:26:47 10° NNW 12:29:22 21° NNE 12:31:56 10° ENE daylight
23 Feb - 14:02:52 10° WNW 14:06:06 65° SW 14:09:19 10° SE daylight
24 Feb - 06:42:11 10° SSW 06:45:20 48° SE 06:48:30 10° ENE daylight
24 Feb - 08:19:13 10° W 08:21:58 24° NNW 08:24:43 10° NNE daylight
24 Feb - 09:58:02 10° NNW 09:59:20 12° N 10:00:39 10° NNE daylight
24 Feb - 11:34:45 10° NNW 11:36:53 16° NNE 11:39:00 10° ENE daylight
24 Feb - 13:10:37 10° NW 13:13:52 64° NE 13:17:06 10° ESE daylight
24 Feb - 14:48:19 10° W 14:49:58 13° SW 14:51:36 10° SSW daylight
25 Feb - 05:50:29 10° S 05:53:13 24° SE 05:55:56 10° ENE visible
25 Feb - 07:26:29 10° W 07:29:34 37° NNW 07:32:39 10° NE daylight
25 Feb - 09:05:04 10° NW 09:06:45 13° N 09:08:27 10° NNE daylight
25 Feb - 10:42:40 10° NNW 10:44:20 13° N 10:45:58 10° NE daylight
25 Feb - 12:18:28 10° NW 12:21:32 36° NNE 12:24:35 10° E daylight
25 Feb - 13:55:09 10° WNW 13:57:54 25° SW 14:00:39 10° SSE daylight
26 Feb - 04:59:35 10° SSE 05:01:08 13° SE 05:02:41 10° E visible
26 Feb - 06:33:58 10° WSW 06:37:13 67° NW 06:40:30 10° NE daylight
26 Feb - 08:12:02 10° WNW 08:14:12 16° NNW 08:16:21 10° NNE daylight
26 Feb - 09:50:26 10° NNW 09:51:44 12° N 09:53:01 10° NNE daylight
26 Feb - 11:26:23 10° NNW 11:29:07 24° NNE 11:31:50 10° E daylight
26 Feb - 13:02:34 10° WNW 13:05:45 50° SW 13:08:54 10° SE daylight
27 Feb - 05:41:44 10° SW 05:44:57 62° SE 05:48:12 10° ENE visible
27 Feb - 07:19:04 10° WNW 07:21:40 21° NNW 07:24:18 10° NNE daylight
27 Feb - 08:57:51 10° NNW 08:59:06 12° N 09:00:20 10° NNE daylight
27 Feb - 10:34:19 10° NNW 10:36:36 17° NNE 10:38:54 10° ENE daylight
27 Feb - 12:10:14 10° NW 12:13:30 81° NE 12:16:46 10° SE daylight
27 Feb - 13:48:54 10° WSW 13:49:31 10° SW 13:50:07 10° SW daylight
28 Feb - 04:49:50 10° SSW 04:52:45 31° SE 04:55:42 10° ENE visible
28 Feb - 06:26:13 10° W 06:29:12 31° NNW 06:32:12 10° NE daylight
28 Feb - 08:04:56 10° NW 08:06:28 13° N 08:08:00 10° NNE daylight
28 Feb - 09:42:13 10° NNW 09:44:02 14° NNE 09:45:51 10° NE daylight
28 Feb - 11:18:00 10° NW 11:21:10 43° NNE 11:24:18 10° ESE daylight
28 Feb - 12:54:57 10° W 12:57:26 20° SW 12:59:55 10° S daylight
01 Mar - 03:58:31 10° S 04:00:38 16° SE 04:02:45 10° E visible
01 Mar - 05:33:35 10° WSW 05:36:48 53° NW 05:40:02 10° NE visible
01 Mar - 07:11:52 10° NW 07:13:51 15° NNW 07:15:51 10° NNE daylight
01 Mar - 08:50:01 10° NNW 08:51:24 12° N 08:52:48 10° NNE daylight
01 Mar - 10:25:53 10° NW 10:28:44 27° NNE 10:31:35 10° E daylight
01 Mar - 12:02:12 10° WNW 12:05:17 39° SW 12:08:20 10° SSE daylight
02 Mar - 04:41:12 10° SW 04:44:28 80° SE 04:47:45 10° NE visible
02 Mar - 06:18:49 10° WNW 06:21:17 19° NNW 06:23:45 10° NNE daylight
02 Mar - 07:57:32 10° NNW 07:58:45 12° N 07:59:58 10° NNE daylight
02 Mar - 09:33:45 10° NNW 09:36:13 19° NNE 09:38:40 10° ENE daylight
02 Mar - 11:09:45 10° NW 11:13:01 80° SW 11:16:16 10° SE daylight
03 Mar - 03:49:08 10° SSW 03:52:12 39° SE 03:55:18 10° ENE visible
03 Mar - 05:25:53 10° W 05:28:45 27° NNW 05:31:37 10° NE visible
03 Mar - 07:04:39 10° NNW 07:06:04 12° N 07:07:29 10° NNE daylight
03 Mar - 08:41:38 10° NNW 08:43:37 15° NNE 08:45:36 10° NE daylight
03 Mar - 10:17:27 10° NW 10:20:40 53° NNE 10:23:52 10° ESE daylight
03 Mar - 11:54:44 10° W 11:56:51 16° SW 11:58:57 10° S daylight
